Temp
10 10 10 10 10 9 9 8 8 8 9 8 8 8 8 9 9 8 9 11 16 19 18 19 20 21 22 22 24 23 25 25 27 26 29 29 30 29 30 30 31 31 31 29 25
9 9 9 9 9 9 10 9 8 9 8 8 8 8 8 9 8 9 11 13 16 17 17 20 22 22 23 23 23 25 23 25 27 27 28 29 29 29 31 31 30 30 27 26 25
9 9 9 9 9 9 9 9 9 9 8 8 8 8 8 8 10 14 19 20 18 18 18 20 22 25 24 24 23 23 23 25 26 26 27 28 29 29 30 31 31 30 28 27 27
9 9 9 9 9 9 9 9 9 9 9 8 8 8 8 8 18 18 18 18 17 16 18 21 23 24 24 23 23 24 24 24 26 27 27 28 28 29 29 31 30 30 29 28 28
9 8 8 8 9 9 9 9 9 9 9 8 8 8 8 9 12 19 18 18 13 15 19 22 23 24 23 23 21 20 24 24 24 27 27 27 27 28 29 30 30 29 29 30 29
9 9 8 8 8 9 9 9 9 9 9 8 8 8 8 12 17 17 17 16 15 17 20 21 23 24 24 23 23 23 23 24 25 26 26 26 27 26 28 29 29 29 30 30 30
9 8 8 8 8 8 8 8 8 8 8 8 8 8 10 14 17 17 16 15 15 19 20 21 22 24 24 22 24 23 23 24 25 24 25 25 25 25 27 30 29 29 29 29 29
9 8 8 8 8 8 8 8 8 9 9 8 8 8 10 15 16 16 16 15 15 18 20 21 22 24 24 24 23 23 24 23 26 24 26 26 26 28 28 26 29 29 29 28 29
9 8 8 8 8 8 8 8 8 9 9 8 9 9 12 15 15 17 16 17 17 19 20 21 22 23 23 23 23 23 24 23 24 25 26 26 27 27 27 27 28 28 29 30 30
8 8 8 8 8 8 8 8 9 9 9 9 9 10 13 19 18 17 17 18 19 20 21 21 22 22 22 23 22 23 24 24 25 25 24 25 26 27 27 27 28 28 28 27 28
7 7 7 7 7 7 7 8 10 10 9 13 14 15 19 20 18 19 19 20 20 20 20 20 21 21 22 23 24 24 24 24 24 24 25 25 26 27 27 26 28 28 27 26 27
7 7 7 7 7 7 7 8 11 12 13 13 14 14 16 17 20 19 20 21 20 20 20 20 20 22 22 23 23 23 23 23 24 24 24 25 25 27 26 27 27 27 27 26 26
7 7 7 7 7 7 7 9 10 10 14 17 15 14 17 18 19 19 21 21 21 20 20 21 22 22 22 22 22 23 23 22 23 23 24 24 25 25 27 26 26 26 25 25 26
6 6 7 7 8 7 9 10 10 9 15 18 16 18 18 19 20 21 22 22 21 21 21 22 22 22 22 23 23 22 23 23 23 22 24 23 25 24 25 26 26 27 26 26 26
6 6 6 6 7 8 10 10 9 11 16 20 17 20 20 21 22 20 22 23 22 21 21 22 21 22 22 23 23 23 23 23 23 22 22 23 24 25 22 26 27 26 26 26 25
6 6 6 6 7 8 9 10 11 15 16 19 20 19 19 21 22 21 21 23 22 22 22 22 22 23 24 23 23 23 22 21 21 22 23 23 24 25 25 26 26 26 26 25 24
6 6 6 6 8 9 7 10 14 15 20 20 19 20 21 21 19 22 21 21 22 21 21 21 22 23 23 23 22 23 23 22 22 22 23 21 22 25 23 24 24 24 24 23 22
7 6 6 6 7 8 8 13 14 19 20 20 21 20 20 21 20 19 21 21 21 22 21 21 20 22 23 24 23 23 24 23 21 21 23 20 23 25 22 22 22 22 22 22 22
7 7 7 7 7 7 11 13 17 18 20 19 20 20 20 21 20 19 18 21 22 22 21 21 21 22 23 24 24 21 22 24 21 19 21 23 22 22 22 22 22 22 22 22 22
6 7 8 8 7 7 12 16 17 19 20 18 17 21 20 21 21 20 19 21 21 22 23 20 19 21 22 23 22 23 22 21 21 20 20 21 21 24 22 21 21 22 21 21 22
6 8 9 7 8 11 13 16 18 20 19 16 16 18 20 21 21 21 21 20 21 20 21 21 21 20 20 20 22 21 22 20 22 21 21 21 22 22 21 21 21 21 21 21 21
6 8 8 7 11 13 15 16 17 19 17 15 15 15 17 21 20 20 20 20 20 20 21 17 20 20 20 18 18 19 20 21 21 20 18 20 21 20 21 20 20 20 20 21 20
6 8 10 8 13 13 15 17 18 18 16 14 15 13 15 17 18 18 18 17 19 20 19 18 17 17 17 18 18 19 18 18 18 18 19 20 21 19 19 20 19 19 20 20 19
7 9 10 10 11 12 15 16 17 18 16 14 14 14 13 15 16 16 16 16 17 17 17 18 16 19 19 19 17 17 17 17 18 17 21 19 21 20 20 20 21 18 18 18 18
7 10 10 11 11 8 13 14 16 16 15 13 14 15 13 12 14 13 15 16 15 15 15 18 16 15 15 16 16 17 17 17 17 18 18 20 18 20 20 20 20 18 17 17 17
8 8 9 10 11 10 11 11 14 15 14 13 12 13 13 14 15 13 13 16 17 15 15 14 14 16 15 15 15 15 16 16 16 17 16 17 17 19 19 18 18 17 17 17 17
7 8 8 11 11 9 10 10 12 14 14 14 13 13 14 13 14 13 14 14 15 16 14 15 15 15 15 14 15 16 17 16 16 16 17 17 19 18 18 17 16 16 16 16 16
Height
805 802 801 799 797 796 794 792 790 788 785 784 782 782 782 779 777 777 768 758 760 764 766 765 770 776 779 781 778 784 791 793 786 788 774 763 763 753 754 758 752 749 749 750 753
803 801 798 796 795 792 790 789 787 785 783 781 780 779 778 775 773 764 752 753 758 762 765 764 765 768 776 778 780 781 791 786 775 773 772 765 764 762 757 758 757 753 751 752 754
803 800 797 794 792 790 787 785 783 782 781 779 777 776 776 774 772 745 739 739 751 757 762 762 764 760 771 773 777 780 786 780 776 773 769 767 764 759 759 761 757 755 752 752 754
801 798 796 793 789 787 784 782 779 778 777 776 775 775 774 775 757 736 736 734 743 753 757 756 757 760 764 770 768 779 776 779 774 769 769 769 765 763 761 755 753 754 752 751 753
798 795 793 790 787 784 781 778 776 774 773 773 773 774 774 774 750 736 736 735 742 749 750 751 752 752 760 764 772 787 773 778 779 771 767 767 768 767 756 750 751 752 751 750 749
796 792 789 786 784 780 778 775 772 771 769 769 770 772 774 764 736 734 732 733 735 742 746 749 747 750 755 761 764 768 775 774 773 768 762 770 765 768 753 748 750 751 748 748 748
792 789 786 783 781 778 774 771 769 766 765 765 766 770 768 742 732 731 733 733 736 737 742 747 749 748 753 765 758 764 775 771 769 768 765 764 769 765 751 745 747 748 746 747 747
791 787 783 780 777 775 772 769 764 760 758 760 763 768 755 730 729 728 731 733 737 741 745 749 751 749 750 752 758 765 769 775 756 762 760 762 763 749 743 746 745 743 742 745 745
787 784 781 777 772 770 768 765 762 757 754 758 763 764 745 728 726 723 727 729 738 743 745 750 751 752 753 755 760 764 764 769 763 753 755 762 758 745 743 744 744 743 741 739 738
784 781 777 775 771 767 764 761 759 759 758 760 761 763 733 718 716 719 726 729 736 740 745 748 750 753 753 754 764 763 762 759 760 756 756 756 753 745 741 744 742 740 738 739 737
781 777 773 771 767 764 762 760 760 758 753 735 732 724 714 714 715 719 723 729 735 741 746 747 750 749 747 747 744 747 754 758 756 751 752 755 750 743 738 743 740 736 737 735 732
777 772 767 764 761 759 759 757 743 744 735 728 726 726 717 715 713 717 720 722 732 739 741 750 750 743 743 744 747 749 753 761 755 750 752 753 752 742 739 737 734 734 735 735 731
773 769 765 759 756 751 749 747 742 740 734 710 709 715 711 713 711 713 713 718 725 733 737 742 738 740 744 751 752 751 752 760 757 754 751 754 754 747 734 736 733 731 734 732 728
769 765 762 757 753 749 746 739 739 742 727 701 701 694 700 703 706 700 705 710 721 727 733 732 731 734 739 744 746 759 750 750 755 762 764 755 763 754 742 737 736 730 729 727 725
764 759 756 756 751 747 739 736 733 741 723 683 691 685 685 691 688 699 700 706 716 721 725 730 733 735 739 738 740 745 744 747 750 758 759 758 759 746 749 740 732 729 727 725 726
758 754 751 747 743 734 735 736 738 732 715 686 679 685 688 683 686 694 700 699 705 717 719 721 722 724 725 728 733 735 744 750 754 754 756 748 750 744 742 734 732 727 725 727 727
750 745 744 742 733 731 731 735 727 719 678 679 680 679 680 684 699 691 699 704 708 721 725 724 722 719 719 729 735 738 742 758 761 758 753 755 753 736 736 734 732 729 726 729 730
740 733 723 721 721 730 730 722 714 682 677 669 669 674 682 680 690 696 698 704 702 705 717 726 738 721 719 723 731 736 736 745 765 762 749 759 748 734 736 737 735 733 733 731 731
733 722 714 706 711 722 723 710 685 677 667 673 673 676 679 678 688 701 707 700 697 699 717 722 726 717 718 716 722 740 742 731 751 767 758 745 746 738 738 739 738 738 738 738 736
728 718 708 701 705 717 713 685 678 667 665 673 684 666 677 676 681 689 704 696 702 698 700 718 733 721 720 717 726 725 729 746 748 764 767 753 754 738 743 742 741 740 742 741 739
728 716 703 701 705 709 690 677 674 664 667 682 683 676 669 671 673 680 689 694 689 701 701 707 717 731 727 732 725 733 732 741 736 749 752 756 744 736 740 742 745 745 744 742 741
729 718 704 704 698 690 681 676 671 664 671 685 686 684 681 664 675 683 685 688 688 690 700 713 715 728 729 736 735 733 733 732 740 754 761 756 746 739 740 744 744 745 744 742 742
728 717 702 703 684 682 675 671 668 667 674 687 683 688 688 682 684 685 690 695 690 692 701 710 726 739 746 742 738 736 741 742 746 749 751 752 742 741 743 743 745 744 743 742 743
729 715 699 696 682 680 673 669 669 662 674 682 685 688 689 686 682 691 694 699 696 696 700 704 726 721 726 729 737 744 745 744 742 752 737 743 734 741 740 739 738 746 745 746 747
728 712 704 698 688 692 679 673 668 670 675 682 683 685 695 694 697 703 699 697 703 704 706 707 726 735 741 741 740 741 743 747 748 745 747 738 747 738 738 737 736 743 746 748 749
726 720 711 703 697 693 679 685 678 675 678 688 689 691 695 694 691 703 702 698 697 708 713 722 738 735 746 747 746 748 745 747 747 748 749 749 749 739 738 739 742 744 747 749 750
732 726 719 702 697 701 694 696 683 676 684 683 688 694 690 695 693 697 701 701 702 705 717 721 730 734 740 750 748 745 737 739 742 744 743 747 738 740 740 742 744 747 748 750 751
Wind_Speed
15 15 16 16 16 16 15 14 13 12 12 12 10 11 11 10 12 14 25 17 24 6 12 7 13 16 7 3 5 2 6 9 8 5 3 1 2 3 3 4 2 2 1 1 18
16 16 16 16 16 16 16 16 14 13 13 12 10 9 9 9 12 24 27 30 24 17 13 18 15 18 6 3 4 8 8 13 7 6 4 2 1 4 1 7 2 2 5 14 20
20 18 18 17 18 18 18 16 16 14 14 13 10 8 6 5 6 12 16 32 28 20 18 19 19 19 15 7 6 6 13 13 11 10 6 5 6 3 2 1 2 2 7 13 15
21 20 19 19 19 19 19 18 16 15 14 13 10 7 4 2 6 2 10 5 34 26 15 13 15 19 17 15 7 9 11 5 5 6 6 7 2 5 5 5 3 5 1 11 12
21 20 21 20 20 21 21 20 18 16 15 14 9 6 3 4 14 19 15 9 29 24 21 13 19 18 19 11 8 11 13 9 18 22 15 10 12 11 9 12 10 12 6 9 12
21 20 20 19 20 20 20 20 21 19 16 13 7 8 3 8 7 4 6 13 29 29 25 13 14 9 16 11 19 16 17 18 10 16 8 7 9 8 11 11 10 5 8 6 8
19 20 21 21 21 21 20 21 22 22 21 13 8 11 8 17 6 8 2 12 23 28 20 21 11 11 11 6 14 7 14 17 18 14 12 2 12 12 12 12 13 11 8 8 9
20 22 22 21 21 20 20 22 23 24 18 9 12 8 9 9 4 5 10 7 16 12 14 17 7 8 3 5 7 11 10 9 10 15 8 8 22 6 11 6 13 12 8 8 11
23 23 22 22 21 21 21 20 21 12 2 13 9 4 11 5 7 14 14 12 23 11 10 11 7 7 6 7 8 8 12 13 3 14 9 18 12 7 0 6 10 9 10 10 12
23 23 23 24 23 22 20 19 9 4 9 9 2 3 10 4 7 13 14 26 14 13 8 8 6 9 9 11 16 14 12 7 14 8 7 12 7 6 3 6 10 10 11 11 14
24 24 24 24 24 21 19 7 2 4 10 12 10 5 3 3 12 10 16 19 14 13 9 8 11 18 21 13 11 9 9 11 5 4 5 10 7 9 5 7 9 8 8 11 13
26 25 24 24 24 24 19 5 9 3 9 26 22 16 19 8 5 14 23 9 13 19 9 9 18 14 11 7 10 8 7 6 5 4 4 5 7 8 6 5 5 5 7 9 7
26 27 27 25 28 15 8 13 5 7 6 7 12 15 11 10 6 16 20 10 18 19 16 16 13 13 13 11 10 6 10 6 6 1 3 3 6 5 5 3 5 6 6 5 5
27 27 27 25 12 4 12 8 8 7 4 6 9 9 13 9 7 12 24 15 6 17 12 8 7 18 13 14 10 11 10 10 9 5 7 3 4 5 5 6 6 4 2 2 3
30 28 25 20 16 6 5 8 5 4 4 6 7 10 15 17 13 9 23 11 11 10 8 9 13 14 12 12 11 6 9 12 9 7 4 5 4 4 3 7 7 3 1 3 5
32 30 27 20 14 21 12 5 5 4 8 6 7 12 14 17 4 9 14 6 6 8 7 6 3 8 11 8 15 10 5 5 3 2 7 7 7 5 6 8 2 0 4 6 9
34 33 35 25 11 11 12 5 4 5 4 7 7 11 19 20 12 8 15 15 13 15 13 8 7 4 4 10 9 6 8 4 5 5 5 2 5 8 2 2 3 7 8 8 10
36 41 29 25 16 15 7 4 9 8 15 2 5 13 16 24 19 3 12 14 10 12 11 12 11 13 7 8 8 11 10 5 7 5 4 2 5 1 3 3 3 4 5 8 10
41 24 16 14 21 27 6 7 9 7 3 2 5 18 10 18 15 18 7 12 11 9 7 12 9 4 6 10 11 6 7 3 2 2 2 3 2 4 2 4 6 8 7 9 10
22 16 10 7 21 20 6 13 7 4 3 2 8 13 15 24 13 19 22 18 15 14 9 4 5 3 4 8 4 10 12 5 3 7 8 4 5 7 6 6 6 10 10 9 13
13 6 5 7 21 7 9 11 13 6 3 2 8 5 12 22 16 17 17 6 12 10 6 11 5 7 4 1 8 6 6 3 3 2 7 8 5 2 9 9 10 9 9 9 10
4 5 6 21 6 4 11 10 12 11 4 4 4 3 3 15 12 7 10 3 8 13 11 1 4 9 7 4 3 2 4 4 6 8 1 3 8 3 11 7 5 7 9 10 8
4 4 6 12 4 5 11 16 15 12 4 3 3 3 5 2 6 5 7 4 6 6 13 8 3 7 4 0 1 1 2 3 5 2 9 7 3 5 6 2 3 7 10 9 8
3 4 3 4 4 3 5 9 12 9 8 6 2 8 2 3 12 5 7 6 4 8 11 7 4 2 7 4 5 5 6 6 3 4 10 10 10 6 8 8 7 6 7 5 6
2 3 4 5 5 6 7 3 4 5 2 6 2 4 8 3 4 4 4 10 7 4 6 3 4 4 5 6 3 5 8 8 8 6 7 3 7 8 10 12 15 8 3 5 5
2 4 4 6 10 11 0 7 5 4 2 9 4 5 7 7 6 11 5 1 4 4 4 2 4 5 4 2 2 4 8 9 11 10 11 11 14 14 13 9 8 3 5 3 3
7 7 5 5 9 9 8 4 4 3 13 11 13 5 12 11 12 12 8 7 6 5 4 3 6 3 4 2 1 8 12 16 9 8 9 10 7 3 4 2 1 4 4 2 4
Wind_Direction
341 339 336 334 334 331 328 328 324 323 320 299 289 281 273 280 281 270 246 228 229 196 196 189 190 186 137 204 124 168 233 245 240 197 252 287 354 84 292 287 304 311 285 116 142
339 337 335 333 330 330 329 330 326 323 322 317 293 286 290 295 291 266 245 239 229 218 202 174 171 156 166 192 174 211 229 238 251 237 258 262 313 311 331 343 234 152 75 134 147
340 333 330 329 328 327 328 326 326 323 322 314 298 284 283 308 295 250 284 242 221 202 201 186 180 173 181 171 185 193 238 248 266 243 247 258 290 339 358 309 341 147 150 152 163
331 329 327 325 325 323 322 321 322 319 321 316 299 270 259 258 255 173 350 283 202 193 186 180 182 196 195 201 152 219 236 241 272 248 241 250 265 273 266 226 350 330 189 164 176
325 324 325 322 319 318 317 317 314 313 317 317 297 233 180 230 251 280 313 291 186 189 184 175 182 192 196 193 133 241 224 204 256 255 251 270 259 265 252 261 279 289 250 196 187
324 323 323 320 317 316 314 312 311 309 310 311 274 208 210 251 239 346 333 164 176 180 185 177 184 170 189 190 192 200 223 236 251 251 244 239 257 199 243 245 262 255 228 223 203
326 323 322 321 320 317 315 313 309 303 303 288 218 189 241 247 211 256 256 174 183 182 174 194 173 176 148 158 208 180 200 223 212 247 258 185 249 216 243 250 258 256 245 228 226
326 323 322 321 320 318 316 313 312 312 299 236 180 194 254 254 256 241 179 159 176 193 199 193 179 196 194 129 146 199 229 228 211 198 230 175 258 249 224 204 246 256 245 232 235
325 323 321 319 319 319 319 317 320 328 185 151 156 200 262 297 230 219 174 150 158 162 177 157 173 206 165 186 170 191 210 211 237 200 178 199 243 231 44 199 239 243 250 251 252
323 322 321 320 319 320 320 320 311 107 127 151 196 229 248 230 173 157 163 146 152 151 122 171 181 199 197 194 194 186 203 196 205 189 212 196 230 273 267 229 229 243 253 252 244
326 322 320 319 319 318 319 332 211 218 219 201 198 232 292 215 133 171 156 140 139 171 173 171 190 204 196 204 209 191 200 213 197 164 167 199 218 264 276 233 234 240 273 268 244
324 319 317 316 316 312 297 227 234 343 268 227 239 245 271 300 172 153 157 144 155 172 163 161 205 204 203 203 209 200 202 205 261 253 200 221 243 263 253 238 234 263 279 263 248
325 321 320 319 316 305 226 230 245 10 261 249 209 223 229 191 223 178 179 143 166 170 183 185 190 180 173 183 188 204 221 210 241 71 234 255 249 230 235 237 243 249 267 262 238
324 320 320 321 313 296 284 287 260 228 270 232 194 224 186 187 216 166 183 163 166 177 172 188 158 178 177 184 188 206 204 217 223 211 230 219 242 215 218 238 235 245 262 314 349
321 317 315 312 292 261 219 39 123 182 269 157 161 152 163 172 135 183 177 179 175 156 173 168 171 161 183 205 192 220 191 207 216 210 208 178 244 205 237 230 231 185 304 335 345
317 313 313 309 260 247 242 275 182 209 247 192 146 175 163 190 139 133 172 169 143 144 193 159 158 183 200 177 187 155 118 78 97 174 242 199 220 200 203 218 218 292 355 351 344
317 313 302 275 252 281 211 193 196 223 307 182 179 172 182 164 168 177 168 179 174 173 186 184 170 154 153 137 159 174 168 170 209 218 249 43 223 268 167 316 314 328 339 0 352
319 312 293 250 248 215 191 192 215 211 232 357 173 163 184 172 178 188 184 178 187 177 178 183 199 215 158 198 173 189 195 195 206 216 227 109 243 150 39 27 25 22 24 32 28
323 310 283 265 222 194 230 205 218 207 244 200 238 163 184 167 168 186 232 192 182 169 166 185 181 125 210 205 195 164 201 233 127 54 249 218 221 254 125 100 88 65 57 45 36
320 304 277 289 163 166 211 226 223 218 155 123 208 192 175 185 158 181 189 206 185 188 165 188 173 219 117 157 86 215 154 169 197 219 235 203 249 244 144 114 76 69 57 41 17
312 306 326 164 145 184 212 223 229 245 111 59 219 210 209 180 194 186 178 164 184 157 157 151 159 173 215 60 161 150 176 96 141 231 233 248 229 158 149 114 94 74 41 18 12
297 301 65 150 179 211 224 225 234 236 120 117 218 91 306 166 174 154 159 154 159 147 161 39 123 156 187 24 317 58 131 182 220 199 174 266 255 151 143 123 79 42 11 1 10
292 269 285 207 216 223 234 228 241 251 158 146 152 135 339 280 126 126 110 28 128 130 152 173 122 131 122 79 41 155 106 114 102 121 199 223 203 140 170 185 32 7 357 356 24
285 303 258 185 288 330 241 233 229 224 185 135 86 131 340 347 45 116 114 48 73 98 104 104 96 116 184 115 129 158 157 151 196 211 239 235 249 178 213 281 324 354 10 49 53
246 273 348 318 329 320 277 23 312 204 95 60 71 46 139 41 67 53 89 119 53 29 52 86 91 81 70 116 116 150 178 183 208 219 224 264 236 262 293 307 311 335 87 100 77
287 328 331 301 338 343 155 22 335 102 104 143 108 359 247 177 189 170 153 154 118 67 80 39 119 126 135 115 116 242 238 235 237 241 248 263 271 270 280 286 278 249 158 129 56
334 297 282 296 2 358 356 64 299 188 54 86 115 104 88 83 94 92 97 72 107 114 98 80 130 132 146 76 17 265 240 223 210 202 223 235 265 253 257 261 192 159 155 90 8